TimeHST,TemperatureF,Dew PointF,Humidity,Sea Level PressureIn,VisibilityMPH,Wind Direction,Wind SpeedMPH,Gust SpeedMPH,PrecipitationIn,Events,Conditions,WindDirDegrees,DateUTC
12:56 AM,66.9,63.0,87,30.05,10.0,NE,26.5,31.1,N/A,,Clear,40,2013-02-01 10:56:00
1:56 AM,65.8,61.9,87,30.04,10.0,NE,26.5,34.5,N/A,,Clear,40,2013-02-01 11:56:00
2:56 AM,65.8,61.0,84,30.03,10.0,NNE,26.5,31.1,N/A,,Clear,30,2013-02-01 12:56:00
3:56 AM,65.8,61.0,84,30.02,10.0,NE,21.9,28.8,N/A,,Clear,40,2013-02-01 13:56:00
4:56 AM,64.9,61.0,87,30.02,10.0,NE,21.9,36.8,N/A,,Clear,40,2013-02-01 14:56:00
5:12 AM,64.4,60.8,88,30.07,10.0,NNE,25.3,39.1,N/A,,Squalls,30,2013-02-01 15:12:00
5:56 AM,64.9,59.0,81,30.03,10.0,NE,28.8,32.2,N/A,,Clear,50,2013-02-01 15:56:00
6:56 AM,64.9,57.9,78,30.06,10.0,NE,24.2,33.4,N/A,,Clear,40,2013-02-01 16:56:00
7:56 AM,66.9,57.9,73,30.07,10.0,NE,20.7,35.7,N/A,,Clear,40,2013-02-01 17:56:00
8:56 AM,68.0,56.8,67,30.08,10.0,NE,31.1,38.0,N/A,,Clear,40,2013-02-01 18:56:00
9:56 AM,72.0,57.9,61,30.08,10.0,NE,28.8,33.4,N/A,,Clear,40,2013-02-01 19:56:00
10:56 AM,73.9,57.9,57,30.09,10.0,NE,26.5,34.5,N/A,,Clear,40,2013-02-01 20:56:00
11:56 AM,75.9,57.9,54,30.08,10.0,NE,19.6,-,N/A,,Clear,40,2013-02-01 21:56:00
12:56 PM,75.9,56.8,51,30.06,10.0,NE,18.4,27.6,N/A,,Clear,40,2013-02-01 22:56:00
1:56 PM,77.0,57.9,52,30.04,10.0,NNE,12.7,21.9,N/A,,Clear,30,2013-02-01 23:56:00
2:56 PM,75.9,59.9,57,30.03,10.0,NE,19.6,25.3,N/A,,Clear,40,2013-02-02 00:56:00
3:56 PM,75.9,59.9,57,30.04,10.0,NE,18.4,-,N/A,,Clear,50,2013-02-02 01:56:00
4:56 PM,73.9,59.9,61,30.03,10.0,ENE,19.6,-,N/A,,Clear,60,2013-02-02 02:56:00
5:56 PM,70.0,59.0,68,30.05,10.0,ENE,24.2,27.6,N/A,,Clear,60,2013-02-02 03:56:00
6:56 PM,66.9,59.0,76,30.06,10.0,NE,23.0,-,N/A,,Clear,50,2013-02-02 04:56:00
7:56 PM,65.8,57.9,76,30.09,10.0,ENE,12.7,-,N/A,,Clear,70,2013-02-02 05:56:00
8:56 PM,65.8,59.9,81,30.10,10.0,NE,16.1,26.5,N/A,,Clear,50,2013-02-02 06:56:00
9:56 PM,65.8,56.8,73,30.11,10.0,ENE,9.2,-,N/A,,Clear,70,2013-02-02 07:56:00
10:56 PM,64.9,56.8,75,30.09,10.0,East,4.6,-,N/A,,Clear,90,2013-02-02 08:56:00
11:56 PM,63.9,57.9,81,30.08,10.0,ENE,6.9,-,N/A,,Clear,70,2013-02-02 09:56:00